#timestamp,LO_Frequency,Hit,StdDev 
1545256815.1,286046996.5,P
1545256835.9,286046996.7,P
1545256855.7,286046998.3,P
1545256875.6,286046998.3,N
1545256895.4,286046999.2,N
1545256915.2,286046997.7,N
1545256935.1,286046995.2,Y
1545256936.0,286046995.2,P
1545256955.8,286047001.1,N
1545256975.6,286046998.4,N
1545256995.5,286046998.4,N
1545257015.3,286046998.1,N
1545257035.2,286047000.9,N
1545257055.9,286047000.8,N
1545257075.7,286047001.2,N
1545257095.6,286047001.2,N
1545257115.4,286046999.3,N
1545257135.2,286046997.0,N
1545257155.1,286046999.3,N
1545257156.0,286046999.3,N
1545257175.8,286046998.6,N
1545257195.7,286046998.5,N
1545257215.5,286047000.6,N
1545257235.3,286047000.6,N
1545257255.2,286047000.1,N
1545257275.0,286046999.7,N
1545257275.9,286046999.7,N
1545257295.8,286047000.4,N
1545257315.6,286046999.8,N
1545257335.4,286047002.7,N
1545257355.3,286047002.0,N
1545257375.1,286046998.6,N
1545257395.9,286046998.7,N
1545257415.7,286046999.4,N
1545257435.5,286046998.8,N
1545257455.4,286046998.4,N
1545257475.2,286046998.3,N
1545257495.0,286047000.4,N
1545257495.9,286047000.4,N
1545257515.8,286047002.8,N
1545257535.6,286047001.9,N
1545257555.5,286047001.4,N
1545257575.3,286047004.3,Y
1545257595.1,286047002.6,P
1545257615.9,286047000.2,N
1545257635.7,286047001.9,N
1545257655.6,286047002.5,N
1545257675.4,286047002.7,N
1545257695.2,286047000.5,N
1545257715.1,286047002.1,N
1545257716.0,286047002.1,N
1545257735.8,286047002.4,N
1545257755.6,286047000.1,N
1545257775.5,286047000.2,N
1545257795.3,286047000.2,N
1545257815.2,286047000.3,N
1545257835.9,286046999.7,N
1545257855.7,286047002.6,N
1545257875.6,286047004.4,Y
1545257895.4,286047000.8,P
1545257915.2,286046998.3,P
1545257935.1,286046998.1,N
1545257936.0,286046998.1,N
1545257955.8,286046999.4,N
1545257975.7,286046999.2,N
1545257995.5,286046997.5,N
1545258015.3,286046996.5,N
1545258035.2,286046997.6,N
1545258055.0,286046995.8,N
1545258055.9,286046995.8,N
1545258075.8,286046995.5,N
1545258095.6,286046999.3,N
1545258115.4,286046999.5,N
1545258135.3,286046996.6,N
1545258155.1,286046998.7,N
1545258175.8,286047000.9,N
1545258195.7,286046998.2,N
1545258215.5,286046999.5,N
1545258235.4,286046996.8,N
1545258255.2,286046997.7,N
1545258275.0,286046997.4,N
1545258275.9,286046997.4,N
1545258295.8,286046996.7,N
1545258315.6,286046996.6,N
1545258335.4,286046997.2,N
1545258355.3,286046997.0,N
1545258375.1,286046999.6,N
1545258395.9,286046998.4,N
1545258415.7,286047001.4,N
1545258435.5,286046999.8,N
1545258455.4,286047000.8,N
1545258475.2,286047000.9,N
1545258495.0,286046998.6,N
1545258496.0,286046998.6,N
1545258515.8,286046998.7,N
1545258535.6,286047000.6,N
1545258555.5,286047000.1,N
1545258575.3,286047000.8,N
1545258595.1,286046999.0,N
1545258615.9,286046999.1,N
1545258635.7,286046998.4,N
1545258655.6,286046999.0,N
1545258675.4,286046998.6,N
1545258695.2,286046999.1,N
1545258715.1,286046996.9,N
1545258716.0,286046996.9,N
1545258735.8,286046999.0,N
1545258755.6,286046998.2,N
1545258775.5,286047000.3,N
1545258795.3,286046999.6,N
1545258815.2,286046996.5,N
1545258835.9,286046999.5,N
1545258855.7,286046997.7,N
1545258875.6,286046996.6,N
1545258895.4,286046997.5,N
1545258915.2,286046999.5,N
1545258935.1,286046996.7,N
1545258936.0,286046996.7,N
1545258955.8,286046997.5,N
1545258975.7,286046995.2,Y
1545258995.5,286046996.6,P
1545259015.3,286046997.2,N
1545259035.2,286046999.3,N
1545259055.0,286046999.6,N
1545259055.9,286046999.6,N
1545259075.8,286046998.8,N
1545259095.6,286046998.8,N
1545259115.4,286047000.3,N
1545259135.3,286046998.1,N
1545259155.1,286047001.0,N
1545259175.9,286046998.5,N
1545259195.7,286046998.4,N
1545259215.5,286046998.1,N
1545259235.4,286047001.1,N
1545259255.2,286047001.0,N
1545259275.0,286047000.8,N
1545259275.9,286047000.8,N
1545259295.8,286047000.0,N
1545259315.6,286046999.7,N
1545259335.5,286047002.6,N
1545259355.3,286047001.8,N
1545259375.1,286047001.6,N
1545259395.9,286047000.3,N
1545259415.7,286046999.7,N
1545259435.5,286047001.4,N
1545259455.4,286047000.5,N
1545259475.2,286047000.9,N
1545259495.1,286047000.3,N
1545259496.0,286047000.3,N
1545259515.8,286047001.0,N
1545259535.6,286046998.5,N
1545259555.5,286046998.2,N
1545259575.3,286046999.1,N
1545259595.2,286046997.3,N
1545259615.9,286046998.6,N
1545259635.7,286046996.5,N
1545259655.6,286046998.5,N
1545259675.4,286046999.2,N
1545259695.2,286046997.3,N
1545259715.1,286046997.1,N
1545259716.0,286046997.1,N
1545259735.8,286046998.7,N
1545259755.7,286046998.8,N
1545259775.5,286046999.6,N
1545259795.3,286046998.2,N
1545259815.2,286046998.4,N
1545259835.0,286046999.1,N
1545259835.9,286046999.1,N
1545259855.8,286046998.8,N
1545259875.6,286046999.6,N
1545259895.4,286046997.3,N
1545259915.3,286046995.3,Y
1545259935.1,286046995.5,P
1545259955.8,286046996.8,N
1545259975.7,286046995.6,P
1545259995.5,286046996.1,N
1545260015.4,286046995.2,Y
1545260035.2,286047000.4,P
1545260055.0,286047002.0,N
1545260055.9,286047002.0,N
1545260075.8,286047001.9,N
1545260095.6,286047002.8,N
1545260115.5,286047002.8,N
1545260135.3,286046999.9,N
1545260155.1,286046999.9,N
1545260175.9,286047001.9,N
1545260195.7,286047002.7,N
1545260215.5,286047002.6,N
1545260235.4,286047000.3,N
1545260255.2,286047000.2,N
1545260275.1,286047001.0,N
1545260276.0,286047001.0,N
1545260295.8,286046998.5,N
1545260315.6,286046999.3,N
1545260335.5,286047001.1,N
1545260355.3,286046999.9,N
1545260375.1,286047002.7,N
1545260395.9,286047002.3,N
